| time (UTC) | temp C | wind direction | speed KPH | gust KPH | rain 1hr cm | rain 24hr cm | rain mn cm | humidity % | barometer mb |
| 20260503201530 | 14 | 308 | 3.2 | 17.7 | 0.00 | 0.00 | 0.00 | 35 | 1011.6 |
| 20260503200029 | 14 | 279 | 8.0 | 19.3 | 0.00 | 0.00 | 0.00 | 38 | 1011.7 |
| 20260503194528 | 13 | 292 | 9.7 | 25.7 | 0.00 | 0.00 | 0.00 | 33 | 1012.0 |
| 20260503193028 | 13 | 242 | 6.4 | 22.5 | 0.00 | 0.00 | 0.00 | 38 | 1012.0 |
| 20260503191534 | 13 | 180 | 6.4 | 22.5 | 0.00 | 0.00 | 0.00 | 37 | 1012.0 |
| 20260503190028 | 13 | 267 | 8.0 | 22.5 | 0.00 | 0.00 | 0.00 | 36 | 1012.2 |
| 20260503184529 | 13 | 293 | 9.7 | 22.5 | 0.00 | 0.00 | 0.00 | 35 | 1012.4 |
| 20260503183028 | 13 | 0 | 6.4 | 20.9 | 0.00 | 0.00 | 0.00 | 39 | 1012.5 |
| 20260503181529 | 13 | 278 | 6.4 | 33.8 | 0.00 | 0.00 | 0.00 | 39 | 1012.6 |
| 20260503180030 | 12 | 277 | 4.8 | 22.5 | 0.00 | 0.00 | 0.00 | 40 | 1012.5 |
| 20260503174527 | 12 | 277 | 6.4 | 22.5 | 0.00 | 0.00 | 0.00 | 40 | 1012.8 |
| 20260503173029 | 12 | 0 | 8.0 | 17.7 | 0.00 | 0.00 | 0.00 | 40 | 1012.7 |
| 20260503171528 | 12 | 301 | 4.8 | 17.7 | 0.00 | 0.00 | 0.00 | 44 | 1013.0 |
| 20260503081531 | 2 | 0 | 0.0 | 0.0 | 0.00 | 0.03 | 0.00 | 85 | 1011.1 |
| 20260503071526 | 2 | 0 | 0.0 | 0.0 | 0.00 | 0.03 | 0.00 | 83 | 1010.6 |
| 20260503054535 | 5 | 0 | 0.0 | 0.0 | 0.00 | 0.03 | 0.00 | 80 | 1011.2 |
| 20260503053028 | 5 | 0 | 0.0 | 0.0 | 0.00 | 0.03 | 0.00 | 75 | 1011.3 |
| 20260503051529 | 5 | 0 | 0.0 | 0.0 | 0.00 | 0.03 | 0.00 | 77 | 1011.3 |
| 20260503050036 | 6 | 0 | 0.0 | 0.0 | 0.00 | 0.03 | 0.00 | 79 | 1011.4 |
| 20260503044531 | 6 | 0 | 0.0 | 3.2 | 0.00 | 0.03 | 0.00 | 76 | 1011.5 |
| 20260503043030 | 6 | 0 | 0.0 | 0.0 | 0.00 | 0.03 | 0.00 | 76 | 1011.6 |
| 20260503041535 | 7 | 0 | 0.0 | 0.0 | 0.00 | 0.03 | 0.00 | 75 | 1011.6 |
| 20260503040028 | 7 | 0 | 0.0 | 1.6 | 0.00 | 0.03 | 0.00 | 71 | 1011.7 |
| 20260503034528 | 7 | 0 | 0.0 | 0.0 | 0.00 | 0.03 | 0.03 | 76 | 1011.6 |
| 20260503033028 | 7 | 0 | 0.0 | 0.0 | 0.00 | 0.03 | 0.03 | 67 | 1011.6 |
| 20260503031530 | 8 | 0 | 0.0 | 0.0 | 0.00 | 0.03 | 0.03 | 64 | 1011.7 |
| 20260503030033 | 8 | 0 | 0.0 | 0.0 | 0.00 | 0.03 | 0.03 | 65 | 1011.7 |
| 20260503024530 | 8 | 0 | 0.0 | 3.2 | 0.00 | 0.03 | 0.03 | 71 | 1011.9 |
| 20260503023031 | 8 | 0 | 0.0 | 4.8 | 0.00 | 0.03 | 0.03 | 70 | 1011.9 |
| 20260503021528 | 9 | 0 | 0.0 | 4.8 | 0.00 | 0.03 | 0.03 | 64 | 1012.0 |
| 20260503020026 | 10 | 0 | 0.0 | 0.0 | 0.00 | 0.03 | 0.03 | 54 | 1011.9 |
| 20260503014530 | 10 | 0 | 0.0 | 9.7 | 0.00 | 0.03 | 0.03 | 52 | 1011.7 |
| 20260503013035 | 10 | 0 | 0.0 | 4.8 | 0.00 | 0.03 | 0.03 | 52 | 1011.7 |
| 20260503011530 | 11 | 250 | 0.0 | 6.4 | 0.00 | 0.03 | 0.03 | 50 | 1011.7 |
| 20260503010032 | 11 | 0 | 0.0 | 6.4 | 0.00 | 0.03 | 0.03 | 51 | 1011.6 |
| 20260503004528 | 11 | 0 | 0.0 | 4.8 | 0.00 | 0.03 | 0.03 | 49 | 1011.3 |
| 20260503003030 | 11 | 0 | 0.0 | 9.7 | 0.00 | 0.03 | 0.03 | 46 | 1011.1 |
| 20260503001528 | 11 | 0 | 0.0 | 4.8 | 0.00 | 0.03 | 0.03 | 45 | 1011.0 |
| 20260503000029 | 12 | 0 | 0.0 | 11.3 | 0.00 | 0.03 | 0.03 | 43 | 1010.8 |
| 20260502234529 | 12 | 0 | 0.0 | 11.3 | 0.00 | 0.03 | 0.03 | 44 | 1010.8 |
| 20260502233027 | 12 | 0 | 0.0 | 12.9 | 0.00 | 0.03 | 0.03 | 41 | 1010.7 |
| 20260502231530 | 13 | 0 | 1.6 | 12.9 | 0.00 | 0.03 | 0.03 | 42 | 1010.8 |
| 20260502230033 | 13 | 296 | 3.2 | 12.9 | 0.00 | 0.03 | 0.03 | 44 | 1010.7 |
| 20260502224529 | 13 | 292 | 0.0 | 11.3 | 0.00 | 0.03 | 0.03 | 42 | 1010.6 |
| 20260502223027 | 13 | 309 | 1.6 | 16.1 | 0.00 | 0.03 | 0.03 | 40 | 1010.5 |
| 20260502221532 | 14 | 0 | 6.4 | 16.1 | 0.00 | 0.03 | 0.03 | 39 | 1010.4 |
| 20260502220029 | 14 | 0 | 0.0 | 8.0 | 0.00 | 0.03 | 0.03 | 40 | 1010.3 |
| 20260502214528 | 15 | 309 | 3.2 | 12.9 | 0.00 | 0.03 | 0.03 | 39 | 1010.4 |
| 20260502213029 | 14 | 261 | 3.2 | 16.1 | 0.00 | 0.03 | 0.03 | 42 | 1010.3 |
| 20260502211528 | 14 | 311 | 3.2 | 11.3 | 0.00 | 0.03 | 0.03 | 39 | 1010.2 |
| 20260502210030 | 14 | 0 | 0.0 | 6.4 | 0.00 | 0.03 | 0.03 | 41 | 1010.0 |
| 20260502204529 | 14 | 261 | 3.2 | 11.3 | 0.00 | 0.03 | 0.03 | 40 | 1009.9 |
| 20260502203028 | 15 | 0 | 0.0 | 14.5 | 0.00 | 0.03 | 0.03 | 43 | 1010.1 |